Regional Weather Roundup
Issued by NWS Upton, NY

Current Version | Previous Version | Text Only | Print | Product List | Glossary On
Versions: 1 2 3 4 5 6 7 8 9 10 11 12 13 14 15 16 17 18 19 20 21 22 23 24 25 26 27 28 29 30 31 32 33 34 35 36 37 38 39 40 41 42 43 44 45 46 47 48 49 50
000 ASUS41 KOKX 260208 RWROKX REGIONAL WEATHER ROUNDUP NATIONAL WEATHER SERVICE NEW YORK NY 1000 PM EDT MON MAY 25 2015 NOTE: "FAIR" INDICATES FEW OR NO CLOUDS BELOW 12,000 FEET WITH NO SIGNIFICANT WEATHER AND/OR OBSTRUCTIONS TO VISIBILITY. NYZ071-072-176-178-NJZ106-104-260300- NEW YORK CITY METRO AREA CITY SKY/WX TMP DP RH WIND PRES REMARKS CENTRAL PARK PTCLDY 77 55 46 VRB6 30.21R LAGUARDIA APRT MOCLDY 71 56 58 S9 30.18R KENNEDY INTL MOCLDY 65 57 75 S18G26 30.21R NEWARK/LIBERTY PTCLDY 77 57 50 S10 30.19R BRNX BOT. GARD N/A 70 55 60 E3 30.21R TETERBORO PTCLDY 77 55 46 S10 30.17R $$ NYZ177-179-078>081-260300- LONG ISLAND NEW YORK CITY SKY/WX TMP DP RH WIND PRES REMARKS FARMINGDALE CLEAR 66 57 72 SW15G24 30.22R ISLIP MOCLDY 66 55 67 SW22G32 30.20R SHIRLEY PTCLDY 67 54 63 SW14G24 30.23R WESTHAMPTON PTCLDY 61 55 81 SW10G21 30.24R MONTAUK POINT N/A 63 55 75 SW12G23 30.23S $$ NYZ052-065-067-260300- HUDSON VALLEY CITY SKY/WX TMP DP RH WIND PRES REMARKS WHITE PLAINS PTCLDY 69 57 65 S7 30.18R NEWBURGH CLEAR 77 57 50 SW9 30.16R MONTGOMERY PTCLDY 74 57 55 SW7 30.14R POUGHKEEPSIE PTCLDY 78 55 44 S3 30.13R ALBANY MOCLDY 79 56 45 S9 30.06R $$ NJZ001-105-106-008-010-013-015-019>022-104-260300- NEW JERSEY CITY SKY/WX TMP DP RH WIND PRES REMARKS NEWARK/LIBERTY PTCLDY 77 57 50 S10 30.19R TETERBORO PTCLDY 77 55 46 S10 30.17R CALDWELL PTCLDY 76 55 48 SW6 30.18R MORRISTOWN PTCLDY 73 57 56 SW8G15 30.19 SOMERVILLE PTCLDY 72 57 59 S5 30.17R SUSSEX CLEAR 74 56 53 SW3 30.19R ANDOVER N/A 73 58 59 VRB3 30.19R TRENTON CLEAR 75 58 55 SW14 30.21R MILLVILLE CLEAR 69 56 62 VRB5 30.25R ATLANTIC CITY CLEAR 68 53 58 S12G20 30.26R WRIGHTSTOWN PTCLDY 70 58 65 S10 30.20R TOMS RIVER PTCLDY N/A N/A N/A S8 30.24R BELMAR MOCLDY 70 55 60 S8 30.23R $$ PAZ047>061-062-071-260300- EASTERN PENNSYLVANIA CITY SKY/WX TMP DP RH WIND PRES REMARKS PHILADELPHIA PTCLDY 75 59 57 S9 30.22R ALLENTOWN CLEAR 76 58 53 S7 30.19R SCRANTON PTCLDY 75 58 55 SW9 30.15R $$ CTZ002-004>006-009-010-012-RIZ004-006-007-MAZ004-011-015-260300- SOUTHERN NEW ENGLAND IN CT CITY SKY/WX TMP DP RH WIND PRES REMARKS BRADLEY INTL CLOUDY 71 57 61 S13 30.14R HARTFORD MOCLDY 70 56 61 S9 30.16R DANBURY PTCLDY 71 55 56 S10 30.18R WTRBRY/OXFORD MOCLDY 68 55 64 S9 30.20S BRIDGEPORT PTCLDY 67 56 67 SW20 30.18R MERIDEN MOCLDY 70 55 59 S13 30.17S NEW HAVEN PTCLDY 65 55 70 VRB6 30.19R CHESTER FAIR 64 55 72 SW9 30.22R GROTON PTCLDY 64 55 72 SW12 30.21R WILLIMANTIC MOCLDY 69 56 62 S7 30.19R IN RI CITY SKY/WX TMP DP RH WIND PRES REMARKS PROVIDENCE MOCLDY 63 56 78 S9 30.22R BLOCK ISLAND PTCLDY 57 52 82 SW16 30.23R WESTERLY PTCLDY 61 55 81 S8 30.23R IN MA CITY SKY/WX TMP DP RH WIND PRES REMARKS BOSTON CLOUDY 67 56 67 S12 30.16S WORCESTER CLOUDY 69 55 60 SW13 30.18R WESTFIELD CLOUDY 72 56 57 S8 30.14R PROVINCETOWN MOCLDY 59 54 82 S16 30.22S NANTUCKET MOCLDY 58 55 90 SW10 30.27R $$ ANZ330-335-338-340-345-350-353-355-260300- COASTAL MARINE OBSERVATIONS STATION/POSITION TIME SKY/WX TEMP WIND PRES VSBY WAVE AIR SEA DIR/SP/G HT/PER (UTC) (F) (DEG/KT/KT) (MB) (MI) (FT/S) NY HARB ENTRANCE 0150 62 56 200/ 19/ 23 1022.6 5/ 5 4S FIRE IS 0103 55 N/A 5/ 6 20S FIRE ISLAND 0150 60 55 210/ 17/ 21 1023.7 4/ 5 GREAT SOUTH BAY 0100 64 65 230/ 21/ 27 N/A 23SW MTP 0150 59 53 220/ 17/ 19 1023.5 4/ 5 HUDSON CANYON NOT AVBL KINGS POINT 0100 69 59 190/ 12/ 14 1021.2 CENTRAL LI SOUND 0115 62 54 200/ 19/ 21 N/A EASTERN LI SOUND 0100 60 270/ 4/ 8 N/A ROBBINS REEF 0100 78 190/ 14/ 17 1020.6 $$ >>>>>>>>>>>>>>>>>>>>>>>>>>>> KEY <<<<<<<<<<<<<<<<<<<<<<<<<<< > < > SKY/WX - SKY CONDITION/PRESENT WEATHER < > TMP - TEMPERATURE IN FAHRENHEIT < > DP - DEWPOINT IN FAHRENHEIT < > RH - RELATIVE HUMIDITY IN PERCENT < > WIND - DIRECTION AND SPEED IN MPH < > PRES - MEAN SEA LEVEL PRESSURE IN INCHES OF HG < > WCI - WIND CHILL INDEX < > VSB - VISIBILITY IN MILES < > HX - HEAT INDEX < > TC - TEMPERATURE IN CELSIUS < > VRB - VARIABLE WIND DIRECTION < > < >>>>>>>>>>>>>>>>>>>>>>>>>>>> KEY <<<<<<<<<<<<<<<<<<<<<<<<<<<

USA.gov is the U.S. government's official web portal to all federal, state and local government web resources and services.